Weather History for Watertown, SD

Change the Weather History Date:

Monday, February 18, 2013

  Actual Average Record
Temperature  
Mean Temperature 18 °F 18 °F  
Max Temperature 33 °F 28 °F 62 °F (1930)
Min Temperature 2 °F 9 °F -26 °F (1903)
Degree Days  
Heating Degree Days 47 47  
Month to date heating degree days 855 885  
Since 1 July heating degree days 5825 5967  
Cooling Degree Days 0 0  
Month to date cooling degree days 0 0  
Year to date cooling degree days 0 0  
Moisture  
Dew Point 9 °F    
Average Humidity 84    
Maximum Humidity 92    
Minimum Humidity 76    
Precipitation  
Precipitation 0.00 in 0.02 in 0.42 in (1991)
Month to date precipitation 0.91 0.31  
Year to date precipitation 1.19 0.83  
Snow  
Snow 0.00 in - - ()
Month to date snowfall 11.0  
Since 1 July snowfall 23.6  
Snow Depth 15.00 in    
Sea Level Pressure  
Sea Level Pressure 29.81 in    
Wind  
Wind Speed 25 mph (NW)    
Max Wind Speed 35 mph    
Max Gust Speed 43 mph    
Visibility 3 miles    
Events Fog , Snow    
T = Trace of Precipitation, MM = Missing Value Source: NWS Daily Summary

Daily Weather History Graph

Daily Weather History Graph

Search for Another Location

Airport:

Trip Planner

Search our weather history database for the weather conditions in past years. The results will help you decide how hot, cold, wet, or windy it might be!

Date:

Astronomy

Feb. 18, 2013 Rise Set
Actual Time 7:24 AM CST 6:01 PM CST
Civil Twilight 6:54 AM CST 6:31 PM CST
Nautical Twilight 6:20 AM CST 7:05 PM CST
Astronomical Twilight 5:46 AM CST 7:39 PM CST
Moon 11:40 AM CST 2:12 AM CST
Length of Visible Light 11h 37m
Length of Day
10h 37m
First Quarter, 58% of the Moon is Illuminated
Feb 18
First Quarter
Feb 25
Full
Mar 4
Last Quarter
Mar 11
New
Mar 19
First Quarter

Hourly Weather History & Observations

Time (CST) Temp. Windchill Dew Point Humidity Pressure Visibility Wind Dir Wind Speed Gust Speed Precip Events Conditions
12:53 AM 28.9 °F 19.8 °F 27.0 °F 92% 29.59 in 10.0 mi West 10.4 mph - N/A   Partly Cloudy
1:53 AM 30.9 °F 19.4 °F 28.0 °F 89% 29.58 in 10.0 mi West 17.3 mph - N/A   Partly Cloudy
2:10 AM 30.2 °F 17.8 °F 28.4 °F 93% 29.53 in 10.0 mi West 19.6 mph - N/A   Mostly Cloudy
2:53 AM 32.0 °F 20.5 °F 28.9 °F 88% 29.57 in 10.0 mi West 18.4 mph - N/A   Overcast
3:45 AM 33.8 °F 23.5 °F 30.2 °F 87% 29.54 in 9.0 mi WNW 16.1 mph 25.3 mph N/A   Overcast
3:53 AM 33.1 °F 22.2 °F 30.0 °F 89% 29.59 in 8.0 mi WNW 17.3 mph 25.3 mph N/A   Overcast
4:06 AM 33.8 °F 22.5 °F 30.2 °F 87% 29.55 in 8.0 mi WNW 19.6 mph 25.3 mph N/A   Overcast
4:53 AM 33.1 °F 22.2 °F 30.0 °F 89% 29.60 in 8.0 mi WNW 17.3 mph 25.3 mph N/A   Overcast
5:53 AM 26.1 °F 10.1 °F 24.1 °F 92% 29.64 in 2.0 mi NNW 27.6 mph 38.0 mph 0.00 in Snow Light Snow
6:05 AM 24.8 °F 8.7 °F 21.2 °F 86% 29.59 in 3.0 mi NNW 26.5 mph 38.0 mph 0.00 in   Overcast
6:46 AM 19.4 °F 0.5 °F 17.6 °F 93% 29.62 in 4.0 mi NNW 29.9 mph 40.3 mph 0.00 in   Overcast
6:53 AM 19.0 °F -0.3 °F 16.0 °F 88% 29.70 in 3.0 mi NW 31.1 mph 39.1 mph 0.00 in   Overcast
7:00 AM 19.4 °F 2.1 °F 15.8 °F 86% 29.63 in 1.8 mi NNW 24.2 mph 38.0 mph N/A   Overcast
7:09 AM 19.4 °F 1.8 °F 15.8 °F 86% 29.63 in 2.0 mi NNW 25.3 mph 32.2 mph N/A   Overcast
7:21 AM 17.6 °F -1.0 °F 15.8 °F 93% 29.64 in 5.0 mi NNW 26.5 mph 33.4 mph N/A   Overcast
7:53 AM 18.0 °F -0.8 °F 14.0 °F 84% 29.74 in 5.0 mi NNW 27.6 mph 35.7 mph N/A   Overcast
8:31 AM 17.6 °F -1.3 °F 12.2 °F 79% 29.68 in 5.0 mi NNW 27.6 mph 41.4 mph N/A   Overcast
8:53 AM 17.1 °F -1.0 °F 12.9 °F 84% 29.78 in 2.5 mi NNW 24.2 mph 32.2 mph 0.00 in Snow Light Snow
9:01 AM 15.8 °F -4.7 °F 12.2 °F 86% 29.71 in 1.2 mi NNW 31.1 mph - 0.00 in Snow Light Snow
9:13 AM 15.8 °F -3.7 °F 10.4 °F 79% 29.72 in 2.0 mi NNW 27.6 mph 39.1 mph 0.00 in Snow Light Snow
9:34 AM 15.8 °F -3.1 °F 10.4 °F 79% 29.73 in 3.0 mi NW 25.3 mph 33.4 mph 0.00 in   Haze
9:41 AM 14.0 °F -6.2 °F 10.4 °F 86% 29.74 in 2.0 mi NW 27.6 mph 34.5 mph 0.00 in Snow Light Snow
9:45 AM 14.0 °F -6.8 °F 10.4 °F 86% 29.74 in 1.2 mi NNW 29.9 mph 38.0 mph 0.00 in Snow Light Snow
9:53 AM 12.9 °F -7.6 °F 9.0 °F 84% 29.82 in 1.5 mi NW 27.6 mph 38.0 mph 0.00 in Snow Light Snow
10:01 AM 12.2 °F -7.5 °F 8.6 °F 85% 29.75 in 2.5 mi NW 24.2 mph 35.7 mph 0.00 in Snow Light Snow
10:15 AM 14.0 °F -5.5 °F 10.4 °F 86% 29.75 in 1.5 mi NW 25.3 mph 31.1 mph 0.00 in Snow Light Snow
10:27 AM 12.2 °F -7.9 °F 8.6 °F 85% 29.76 in 0.8 mi NW 25.3 mph 33.4 mph 0.00 in Snow Light Snow
10:35 AM 12.2 °F -8.9 °F 8.6 °F 85% 29.76 in 1.0 mi NW 28.8 mph 34.5 mph 0.00 in Snow Light Snow
10:48 AM 12.2 °F -8.6 °F 8.6 °F 85% 29.76 in 0.8 mi NNW 27.6 mph 34.5 mph 0.00 in Snow Light Snow
10:53 AM 12.0 °F -9.5 °F 8.1 °F 84% 29.85 in 0.8 mi NW 29.9 mph 34.5 mph 0.00 in Snow Light Snow
11:00 AM 12.2 °F -8.9 °F 6.8 °F 79% 29.77 in 1.2 mi NNW 28.8 mph 35.7 mph 0.00 in Snow Light Snow
11:09 AM 12.2 °F -8.9 °F 6.8 °F 79% 29.78 in 2.0 mi NNW 28.8 mph 36.8 mph 0.00 in Snow Light Snow
11:18 AM 12.2 °F -8.6 °F 6.8 °F 79% 29.78 in 4.0 mi NNW 27.6 mph 36.8 mph 0.00 in   Haze
11:24 AM 12.2 °F -9.3 °F 6.8 °F 79% 29.78 in 2.5 mi NNW 29.9 mph 34.5 mph 0.00 in   Overcast
11:39 AM 12.2 °F -8.2 °F 6.8 °F 79% 29.79 in 1.2 mi NNW 26.5 mph 33.4 mph 0.00 in Snow Light Snow
11:51 AM 10.4 °F -11.4 °F 5.0 °F 79% 29.79 in 1.0 mi NNW 28.8 mph 38.0 mph 0.00 in Snow Light Snow
11:53 AM 10.9 °F -10.6 °F 5.0 °F 77% 29.87 in 1.2 mi NNW 28.8 mph 38.0 mph 0.00 in Snow Light Snow
12:01 PM 10.4 °F -10.3 °F 6.8 °F 85% 29.79 in 1.8 mi NNW 25.3 mph 34.5 mph 0.00 in   Haze
12:17 PM 10.4 °F -12.0 °F 5.0 °F 79% 29.79 in 1.2 mi NW 31.1 mph 38.0 mph 0.00 in   Haze
12:28 PM 10.4 °F -11.0 °F 6.8 °F 85% 29.80 in 2.0 mi NNW 27.6 mph 41.4 mph 0.00 in   Haze
12:36 PM 10.4 °F -11.0 °F 5.0 °F 79% 29.80 in 1.2 mi NNW 27.6 mph 40.3 mph 0.00 in Snow Light Snow
12:49 PM 12.2 °F -8.6 °F 6.8 °F 79% 29.80 in 2.0 mi NNW 27.6 mph 35.7 mph 0.00 in   Haze
12:53 PM 10.9 °F -12.2 °F 5.0 °F 77% 29.88 in 2.0 mi NW 34.5 mph 42.6 mph 0.00 in   Haze
1:07 PM 12.2 °F -8.6 °F 5.0 °F 73% 29.80 in 8.0 mi NNW 27.6 mph 36.8 mph N/A   Overcast
1:14 PM 10.4 °F -11.7 °F 5.0 °F 79% 29.80 in 2.5 mi NNW 29.9 mph 39.1 mph 0.00 in   Overcast
1:20 PM 10.4 °F -12.0 °F 3.2 °F 73% 29.81 in 3.0 mi NNW 31.1 mph 40.3 mph 0.00 in   Overcast
1:34 PM 12.2 °F -8.2 °F 5.0 °F 73% 29.81 in 7.0 mi NNW 26.5 mph 40.3 mph 0.00 in   Overcast
1:53 PM 10.9 °F -10.3 °F 5.0 °F 77% 29.89 in 3.0 mi NNW 27.6 mph 39.1 mph 0.00 in   Haze
2:10 PM 12.2 °F -9.6 °F 5.0 °F 73% 29.82 in 6.0 mi NNW 31.1 mph 40.3 mph N/A   Haze
2:23 PM 12.2 °F -9.6 °F 6.8 °F 79% 29.82 in 1.5 mi NNW 31.1 mph 35.7 mph 0.00 in Snow Light Snow
2:26 PM 10.4 °F -10.3 °F 6.8 °F 85% 29.82 in 0.8 mi NNW 25.3 mph 36.8 mph 0.00 in Snow Light Snow
2:35 PM 10.4 °F -11.7 °F 6.8 °F 85% 29.83 in 0.2 mi NNW 29.9 mph 38.0 mph 0.00 in Fog , Snow Light Snow
2:44 PM 10.4 °F -11.4 °F 5.0 °F 79% 29.83 in 0.8 mi NNW 28.8 mph 35.7 mph 0.00 in Snow Light Snow
3:28 PM 10.4 °F -10.3 °F 5.0 °F 79% 29.85 in 0.8 mi NNW 25.3 mph 34.5 mph 0.00 in Snow Light Snow
3:44 PM 10.4 °F -9.5 °F 6.8 °F 85% 29.86 in 0.5 mi NNW 23.0 mph 32.2 mph 0.00 in Fog , Snow Snow
3:50 PM 10.4 °F -10.7 °F 6.8 °F 85% 29.86 in 0.2 mi NNW 26.5 mph 35.7 mph 0.00 in Fog , Snow Snow
3:53 PM 10.0 °F -10.8 °F 6.1 °F 84% 29.94 in 0.2 mi NNW 25.3 mph 35.7 mph 0.00 in Fog , Snow Snow
4:04 PM 8.6 °F -13.4 °F 5.0 °F 85% 29.86 in 0.5 mi NNW 27.6 mph 35.7 mph 0.00 in Fog , Snow Light Snow
4:18 PM 8.6 °F -12.3 °F 5.0 °F 85% 29.87 in 1.5 mi NNW 24.2 mph 38.0 mph 0.00 in Snow Light Snow
4:24 PM 8.6 °F -13.1 °F 3.2 °F 79% 29.87 in 2.5 mi NNW 26.5 mph 34.5 mph 0.00 in   Haze
4:31 PM 8.6 °F -13.4 °F 3.2 °F 79% 29.88 in 4.0 mi NNW 27.6 mph 36.8 mph 0.00 in   Haze
4:53 PM 8.1 °F -14.9 °F 3.0 °F 80% 29.97 in 3.0 mi NNW 29.9 mph 38.0 mph 0.00 in   Haze
4:56 PM 8.6 °F -13.1 °F 3.2 °F 79% 29.89 in 2.5 mi NNW 26.5 mph 34.5 mph N/A   Overcast
5:03 PM 8.6 °F -14.1 °F 3.2 °F 79% 29.89 in 3.0 mi NNW 29.9 mph 38.0 mph N/A   Haze
5:10 PM 8.6 °F -12.7 °F 3.2 °F 79% 29.89 in 4.0 mi NNW 25.3 mph 38.0 mph N/A   Haze
5:32 PM 8.6 °F -11.9 °F 3.2 °F 79% 29.90 in 5.0 mi NNW 23.0 mph 33.4 mph N/A   Haze
5:42 PM 6.8 °F -14.3 °F 3.2 °F 85% 29.91 in 2.5 mi NNW 23.0 mph 33.4 mph N/A   Overcast
5:49 PM 6.8 °F -15.5 °F 3.2 °F 85% 29.91 in 7.0 mi NNW 26.5 mph 32.2 mph N/A   Overcast
5:53 PM 7.0 °F -15.6 °F 1.9 °F 80% 30.01 in 5.0 mi NNW 27.6 mph 33.4 mph N/A   Haze
6:17 PM 6.8 °F -16.9 °F 1.4 °F 79% 29.92 in 5.0 mi NNW 31.1 mph 36.8 mph N/A   Haze
6:53 PM 6.1 °F -16.8 °F 1.0 °F 80% 30.04 in 5.0 mi NNW 27.6 mph 38.0 mph N/A   Haze
7:53 PM 5.0 °F -16.7 °F 1.0 °F 84% 30.05 in 2.5 mi NNW 23.0 mph 33.4 mph N/A   Overcast
8:04 PM 5.0 °F -19.0 °F 1.4 °F 85% 29.95 in 3.0 mi NNW 29.9 mph 36.8 mph N/A   Overcast
8:53 PM 3.9 °F -19.8 °F -0.9 °F 80% 30.07 in 6.0 mi NNW 27.6 mph 35.7 mph N/A   Haze
9:21 PM 3.2 °F -20.3 °F -0.4 °F 85% 29.96 in 6.0 mi NNW 26.5 mph 35.7 mph N/A   Haze
9:53 PM 3.9 °F -20.1 °F -0.9 °F 80% 30.09 in 6.0 mi NNW 28.8 mph 35.7 mph N/A   Haze
10:53 PM 3.0 °F -19.3 °F -0.9 °F 84% 30.12 in 4.0 mi NNW 23.0 mph 33.4 mph N/A   Overcast
11:02 PM 3.2 °F -19.0 °F -0.4 °F 85% 30.00 in 2.5 mi NNW 23.0 mph - N/A   Overcast
11:09 PM 3.2 °F -21.8 °F -0.4 °F 85% 30.00 in 3.0 mi NNW 31.1 mph 36.8 mph N/A   Overcast
11:53 PM 1.9 °F -20.7 °F -2.0 °F 83% 30.14 in 6.0 mi NNW 23.0 mph 31.1 mph N/A   Overcast